Dewpoint
16 16 15 15 14 14 14 14 13 11 8 6 2 1 -0 1 -2 -2 -1 -2 -2 -2 -2 -1 -1 -1 -2 -2 -3 -4 -4 -5 -5 -5 -4 -4 -4 -3 -3 -3 -4 -3 -2 0 2 7 7 7 8 7 7 8 6 7 6 6 6 5 5 5 2 4 3 3 1 2 1 2 3 3 4 5 7 10 13 17 20 22 23 22 25 28 28 27 28
16 15 13 14 15 16 16 14 13 12 8 6 4 0 -1 -2 -1 -1 -1 -1 -1 -0 -0 1 -1 -1 -2 -2 -2 -4 -4 -5 -4 -4 -4 -3 -3 -3 -3 -4 -3 -2 -1 -0 1 6 7 9 9 9 9 8 8 7 7 5 7 4 4 5 2 4 4 3 1 1 3 3 3 3 3 4 5 9 12 14 16 21 22 21 20 27 25 26 27
15 14 15 15 16 18 17 16 13 11 10 5 3 0 -1 -1 -0 -0 1 1 1 1 1 0 1 -1 -1 0 -2 -3 -3 -4 -4 -3 -3 -2 -2 -2 -3 -3 -3 -1 -1 0 1 6 8 9 9 9 9 9 9 8 8 9 9 8 7 6 5 4 3 3 4 4 5 3 2 2 2 3 3 6 10 12 14 19 21 20 21 24 24 21 25
12 13 15 16 18 19 19 17 14 10 8 5 2 1 -1 -0 2 3 3 3 2 1 1 0 1 -0 0 -1 -2 -3 -3 -2 -2 -3 -2 -3 -3 -2 -3 -2 -1 3 3 5 6 7 8 8 9 9 9 9 9 7 8 8 8 8 7 6 6 5 3 2 4 3 3 3 1 1 1 1 1 3 7 13 15 18 21 22 23 22 22 24 25
12 14 16 18 21 23 22 17 12 10 8 6 2 2 1 0 1 2 3 3 2 1 1 1 0 1 -0 -0 -1 -2 -2 -2 -1 -2 -2 -2 -3 -3 -2 -1 0 4 5 6 8 8 9 9 8 10 10 9 9 8 8 8 8 7 7 6 5 6 5 5 4 2 3 2 1 -1 -1 -0 1 2 5 9 13 17 21 22 21 21 22 23 23
15 16 17 21 24 23 20 16 12 9 8 7 5 2 1 1 1 3 3 3 3 3 2 2 1 1 0 -0 -1 -1 -2 -2 -2 -2 -2 -2 -2 -1 3 4 3 4 5 6 7 10 10 10 9 10 10 10 9 9 9 9 8 8 7 7 7 6 6 5 3 1 3 1 -1 -2 -3 -1 1 1 2 6 11 15 16 20 23 22 21 20 20
17 17 19 21 23 21 18 15 13 10 8 6 5 3 1 1 1 3 4 4 3 3 2 2 2 1 0 0 0 1 -1 -1 -1 -2 -2 -1 3 4 4 3 3 4 5 6 8 10 10 11 11 11 11 10 10 10 10 9 9 8 8 8 8 7 7 6 6 5 4 3 0 -2 -2 -2 -1 -0 0 5 8 12 13 14 18 21 20 19 19
17 19 20 21 20 19 18 16 13 11 8 6 6 4 3 2 3 3 5 4 4 3 3 3 1 1 1 0 0 -0 -1 1 -0 -2 1 3 5 5 4 4 4 4 5 7 8 9 10 10 11 11 11 12 11 11 10 9 9 9 9 9 8 8 7 7 7 6 5 4 2 1 -1 -3 -2 -0 1 2 5 9 12 15 17 17 19 21 21
18 20 21 20 20 19 18 15 13 11 9 6 6 5 4 3 4 5 4 5 7 6 5 5 4 2 1 1 1 2 3 3 3 4 5 6 6 4 4 4 4 5 6 7 8 9 10 10 11 12 12 13 14 13 12 12 10 9 9 10 9 9 8 8 8 6 5 5 3 2 -1 -2 -2 -1 -0 1 4 7 11 14 16 17 18 19 20
19 21 21 20 19 17 16 15 13 12 11 8 6 6 6 5 7 7 5 7 8 7 7 6 6 5 3 4 4 3 3 4 5 9 9 5 6 4 4 4 5 5 6 6 7 8 9 9 10 12 13 14 14 14 15 15 15 12 10 10 10 10 9 8 7 7 7 5 4 3 1 1 -1 -2 -2 -2 2 5 8 13 15 17 19 18 18
20 18 17 17 16 16 15 15 14 13 11 9 10 7 7 8 8 7 6 6 6 7 6 6 6 5 5 5 4 3 4 4 9 11 12 13 8 5 5 4 4 5 5 6 6 7 8 9 9 11 12 14 14 15 16 17 17 17 16 15 14 11 9 8 8 8 6 5 5 4 2 1 1 -1 -2 -2 0 3 6 11 13 16 15 15 13
16 17 17 16 16 15 15 15 16 15 13 12 11 10 9 8 7 7 6 6 7 7 6 6 6 6 5 5 5 4 4 8 11 12 13 14 13 7 5 4 4 4 5 5 5 6 7 8 9 9 10 12 13 14 16 18 18 19 19 18 17 16 15 10 8 7 8 6 5 5 4 3 4 5 4 4 2 4 6 10 11 12 13 13 14
16 16 16 15 14 13 13 16 16 16 14 12 11 10 9 8 8 7 6 7 6 6 7 6 6 5 5 5 4 5 4 9 12 13 14 14 15 13 8 6 5 5 5 5 5 6 6 7 8 10 11 14 14 14 14 15 18 19 19 19 19 19 18 17 15 10 9 8 6 6 5 5 5 5 6 6 8 8 8 8 11 11 12 11 11
13 12 11 11 11 12 16 16 14 13 12 11 11 10 10 9 8 8 7 7 7 6 6 5 5 5 5 4 4 4 4 8 12 13 14 15 15 14 11 10 7 7 6 6 6 6 7 8 9 10 12 13 14 15 15 15 16 17 18 18 18 18 19 20 19 17 14 10 9 7 9 9 5 7 9 9 8 7 8 8 10 10 10 10 12
9 9 10 12 14 15 14 13 13 12 12 12 11 10 9 9 8 8 7 7 6 6 5 5 5 5 5 5 4 4 3 10 12 13 14 14 15 14 11 11 10 8 8 8 8 7 8 8 9 10 13 14 15 17 16 17 17 16 16 17 17 17 17 18 19 18 17 15 11 11 12 12 11 10 10 11 9 10 10 10 10 10 11 13 13
9 11 12 11 11 11 10 11 11 12 11 10 10 10 9 9 8 7 6 5 6 5 5 5 5 4 4 4 3 3 3 10 12 13 14 14 14 10 10 9 9 10 10 10 10 10 10 10 10 11 13 15 17 19 19 18 18 17 16 16 17 17 18 19 20 20 19 18 16 14 13 13 14 12 11 10 10 10 9 9 9 8 7 5 5
10 9 9 9 9 8 8 8 9 10 10 9 9 10 10 9 8 7 6 5 4 4 5 4 4 4 4 3 2 2 2 6 11 12 13 14 13 9 9 8 8 9 9 10 11 11 11 12 12 13 14 15 18 19 20 21 18 17 16 15 15 15 15 17 20 21 21 22 22 22 21 20 20 19 19 18 14 12 9 7 6 6 4 3 5
7 8 7 7 6 7 7 8 9 9 9 9 10 11 10 9 7 6 5 5 4 4 4 3 3 3 3 2 2 1 1 4 9 11 12 13 12 8 8 7 7 7 8 9 9 10 11 14 15 14 15 15 18 19 20 20 18 16 16 15 14 13 14 15 14 16 21 22 22 22 22 22 22 21 20 20 19 17 12 8 8 7 5 5 4
4 2 3 3 4 4 5 6 7 7 8 9 10 11 11 9 8 6 5 5 4 4 4 3 2 2 2 1 4 2 1 2 8 10 12 13 11 9 8 7 6 6 7 7 9 9 11 13 15 16 16 17 19 20 21 20 19 17 16 15 14 13 13 14 13 12 12 14 16 18 19 20 21 21 21 21 20 19 17 13 11 9 7 7 7
-0 1 1 2 3 4 5 6 7 7 6 8 10 10 11 9 8 6 5 4 3 3 2 2 2 1 1 1 0 1 1 1 2 9 11 12 14 9 8 6 6 6 7 7 8 10 11 12 14 18 19 19 19 20 20 20 19 19 17 16 15 14 15 14 15 14 14 14 14 15 16 16 18 19 20 20 21 20 20 17 14 12 10 10 9
-0 0 1 1 1 2 3 4 4 5 6 8 9 10 9 8 7 6 5 4 3 2 3 2 1 1 1 0 0 0 0 -0 1 8 10 12 13 13 9 7 7 6 7 8 9 10 11 12 13 17 19 19 20 20 20 20 20 20 19 17 17 18 18 15 16 18 15 15 14 14 14 14 15 16 16 17 18 19 19 20 18 16 14 12 12
-1 -1 -2 -1 -0 1 2 2 3 3 5 8 8 8 8 8 7 6 4 3 3 2 2 1 -0 -1 -1 -0 -0 -0 0 1 0 5 10 12 13 14 10 9 8 7 8 8 9 10 12 14 14 16 18 18 19 19 19 19 19 18 19 22 22 23 20 18 17 17 17 15 15 14 14 14 14 15 15 16 16 17 18 19 20 19 17 16 15
-3 -3 -2 -2 -1 -1 0 1 1 2 4 7 7 7 7 7 6 5 4 3 2 1 0 -0 -1 -3 -3 -3 -2 -1 -0 -1 3 2 7 11 13 14 14 12 14 11 9 9 11 12 14 14 14 16 16 18 18 18 18 18 17 17 18 18 19 20 20 19 19 18 17 16 15 14 14 14 14 14 15 15 16 17 17 18 19 21 20 19 18
-4 -4 -4 -4 -3 -2 -1 -0 1 2 4 6 6 5 5 5 4 2 2 1 -1 -2 -2 -2 -3 -4 -4 -4 -4 -3 -2 -1 3 6 5 11 13 14 15 15 14 12 11 10 11 12 12 13 13 14 15 16 16 16 16 15 15 16 17 19 20 20 19 18 18 18 18 17 16 15 14 14 14 14 15 15 16 17 18 19 19 21 21 20 21
-6 -6 -6 -5 -5 -4 -3 -2 0 2 5 5 4 4 4 3 1 1 0 -0 -1 -2 -3 -4 -5 -5 -5 -5 -4 -3 -2 -1 0 4 8 9 12 14 15 15 15 14 12 12 13 13 13 13 14 14 15 15 15 15 15 16 17 20 19 18 17 15 15 15 15 15 14 14 16 16 15 15 15 15 17 17 18 19 19 19 20 20 21 21 21
-8 -7 -7 -7 -6 -5 -3 -2 -0 2 4 4 3 3 3 1 0 -0 -1 -2 -3 -3 -4 -5 -5 -5 -5 -5 -4 -3 -1 1 2 4 7 10 11 13 15 14 15 15 16 15 16 14 13 13 13 13 14 13 14 16 15 16 17 16 16 14 11 11 12 12 12 13 13 13 12 14 17 17 17 17 19 19 18 17 17 17 17 18 18 19 19
-8 -8 -8 -8 -7 -5 -4 -3 -2 -0 3 3 2 2 2 1 -0 -1 -2 -3 -3 -4 -5 -5 -5 -5 -5 -4 -3 -2 -0 1 2 5 6 7 9 10 11 10 12 12 11 11 13 11 11 12 14 16 17 17 16 16 14 13 10 9 9 9 9 9 10 11 11 11 12 12 13 14 15 18 20 19 19 18 17 17 17 16 16 16 17 17 16
-10 -9 -9 -8 -7 -6 -5 -3 -2 -2 0 1 0 0 0 0 -1 -2 -2 -3 -4 -5 -5 -5 -5 -5 -5 -4 -3 -1 0 2 3 5 6 6 6 6 6 6 6 6 6 7 8 10 12 13 14 11 12 11 10 9 8 7 7 6 6 5 5 7 10 12 13 12 12 12 12 13 13 14 14 15 17 17 18 17 17 17 16 15 16 16 15
-10 -10 -9 -8 -8 -6 -5 -4 -3 -2 0 1 0 0 -0 -1 -1 -1 -0 -2 -3 -3 -4 -4 -4 -4 -3 -3 -2 -1 1 2 4 8 7 8 6 4 4 4 4 4 6 8 8 9 8 9 8 7 7 7 6 6 6 5 4 4 4 4 5 5 5 6 6 8 9 10 10 10 11 12 13 14 14 14 14 15 17 16 17 15 16 15 14
-11 -11 -9 -9 -8 -7 -6 -5 -3 -2 -1 -1 -1 -1 1 4 2 -2 -2 2 2 5 4 -2 -3 -3 -2 -1 1 2 2 3 7 8 8 9 9 9 9 8 7 6 8 10 10 8 6 5 4 4 4 4 4 4 4 4 2 0 1 4 3 3 3 4 5 6 7 8 9 9 10 10 10 11 11 11 12 16 19 18 17 17 14 15 14
-12 -12 -10 -10 -8 -7 -6 -5 -4 -3 -2 -2 -2 -3 -3 -2 5 8 5 3 3 6 9 10 8 5 1 -1 2 7 9 11 9 8 8 9 10 10 11 12 12 12 12 10 9 9 7 5 4 4 3 3 2 2 0 -2 -2 -2 -2 -2 -1 1 3 4 5 5 5 5 6 7 8 9 9 10 10 11 12 13 13 16 17 17 15 14 14
-13 -12 -11 -9 -8 -7 -7 -5 -4 -3 -3 -3 -3 -4 -5 -5 -4 1 6 7 8 8 9 9 9 9 9 6 5 3 7 9 10 10 10 9 9 10 11 11 12 12 13 13 7 6 5 4 3 2 2 1 0 -3 -4 -4 -5 -5 -4 -4 -2 1 1 2 2 -1 1 3 4 6 7 8 10 11 11 11 12 12 12 14 17 17 16 16 15
-12 -11 -10 -9 -8 -7 -7 -7 -5 -4 -4 -4 -4 -4 -5 -5 -6 -5 -2 5 8 9 9 9 9 9 10 11 12 11 8 9 9 9 9 9 10 10 12 15 13 12 10 6 4 3 2 1 1 -2 -3 -3 -5 -5 -5 -6 -6 -6 -5 -5 -4 -1 -1 -4 -4 -4 -1 1 3 5 6 7 8 9 10 11 10 10 11 12 14 17 17 16 16
-11 -11 -10 -9 -9 -9 -8 -7 -6 -6 -5 -5 -5 -5 -5 -5 -6 -5 -5 -4 -1 3 8 9 10 10 10 11 12 13 13 12 9 8 11 10 11 13 12 9 12 10 6 0 0 -0 -2 -3 -4 -6 -6 -6 -5 -5 -5 -5 -7 -5 -6 -5 -4 -4 -6 -6 -5 -3 -1 1 3 3 3 3 5 5 6 7 9 10 9 10 11 12 15 17 16
-11 -9 -8 -8 -9 -9 -8 -8 -7 -7 -6 -6 -6 -6 -6 -6 -6 -6 -5 -5 -4 -2 -1 4 6 10 8 10 11 12 12 12 8 8 9 12 11 10 7 1 1 -1 -2 -3 -4 -4 -5 -5 -6 -6 -6 -6 -6 -6 -6 -8 -7 -7 -7 -6 -7 -6 -6 -5 -4 -4 -3 -2 -1 -0 1 2 1 3 3 4 5 7 8 9 10 11 12 13 16
-11 -11 -10 -9 -9 -9 -9 -8 -8 -7 -7 -7 -7 -7 -7 -7 -7 -6 -5 -5 -4 -3 -2 -0 -1 4 8 8 10 9 7 7 7 10 12 11 8 5 -1 -1 -0 -2 -5 -6 -6 -7 -7 -6 -6 -5 -6 -7 -7 -8 -8 -10 -9 -8 -8 -8 -7 -7 -7 -6 -5 -6 -6 -5 -4 -3 -2 -3 -2 0 1 2 2 3 5 7 9 11 12 13 14
-12 -12 -11 -11 -9 -9 -9 -8 -8 -8 -6 -6 -7 -7 -7 -7 -7 -7 -6 -6 -5 -4 -3 -2 -1 -1 2 1 5 8 11 11 12 11 10 8 6 -2 -5 -5 -5 -5 -6 -7 -7 -6 -6 -7 -7 -7 -8 -8 -9 -9 -9 -10 -10 -10 -6 -9 -9 -8 -7 -7 -7 -8 -7 -6 -5 -6 -6 -6 -6 -5 -3 -1 1 3 4 6 7 9 10 11 12
-11 -12 -11 -10 -9 -9 -9 -9 -9 -7 -8 -8 -8 -8 -8 -8 -8 -7 -7 -7 -5 -5 -5 -4 -0 -2 -2 -1 3 2 2 6 6 4 2 2 -6 -6 -7 -7 -7 -7 -7 -7 -7 -7 -8 -9 -9 -9 -9 -9 -9 -9 -9 -10 -9 -9 -10 -10 -10 -9 -4 -7 -8 -9 -8 -8 -8 -7 -7 -6 -5 -4 -3 -2 -1 1 3 4 5 5 7 9 10
-12 -10 -9 -8 -8 -10 -10 -9 -9 -9 -9 -9 -9 -8 -8 -8 -8 -8 -8 -7 -7 -6 -5 -5 -4 -3 -3 -4 -4 -2 -2 -3 -2 -2 -6 -7 -8 -8 -8 -8 -9 -9 -9 -9 -10 -9 -10 -10 -10 -10 -10 -10 -10 -10 -9 -9 -9 -9 -10 -9 -9 -8 -8 -8 -8 -9 -8 -8 -8 -8 -7 -7 -6 -6 -5 -4 -3 -1 0 1 2 4 4 6 7
-13 -12 -11 -8 -10 -9 -9 -9 -9 -10 -9 -9 -10 -9 -9 -9 -9 -8 -8 -8 -8 -7 -6 -6 -6 -5 -5 -6 -6 -6 -5 -5 -4 -5 -7 -8 -9 -9 -9 -10 -10 -11 -10 -10 -10 -10 -10 -10 -10 -11 -11 -10 -10 -10 -10 -10 -10 -9 -9 -9 -9 -9 -9 -9 -9 -8 -8 -8 -8 -8 -8 -8 -7 -7 -6 -5 -4 -2 -1 -0 1 3 4 4 5
-13 -12 -10 -10 -9 -10 -10 -10 -10 -10 -10 -10 -9 -10 -10 -9 -9 -8 -8 -8 -8 -8 -7 -7 -6 -6 -5 -5 -0 -2 -6 -6 -7 -8 -9 -9 -10 -10 -11 -11 -11 -11 -11 -11 -11 -11 -11 -11 -11 -11 -11 -11 -11 -11 -10 -10 -10 -9 -9 -9 -9 -9 -9 -9 -9 -9 -10 -9 -9 -9 -8 -8 -7 -7 -6 -5 -2 -1 -2 -1 -0 1 2 3 4
-13 -12 -12 -12 -10 -11 -11 -11 -10 -9 -9 -9 -10 -10 -9 -9 -9 -9 -9 -9 -8 -8 -8 -7 -6 -6 -4 1 1 3 -6 -8 -9 -10 -10 -11 -11 -11 -12 -12 -11 -11 -11 -11 -11 -12 -12 -11 -11 -11 -11 -11 -11 -11 -11 -11 -10 -10 -10 -10 -10 -10 -10 -9 -10 -10 -10 -10 -9 -9 -9 -8 -7 -6 -5 -2 -4 -4 -4 -3 -2 -1 0 1 3
-12 -12 -13 -12 -12 -12 -12 -12 -11 -11 -10 -10 -10 -8 -8 -9 -9 -9 -9 -9 -9 -8 -8 -8 -7 -7 -7 -5 -5 -3 -7 -8 -9 -10 -11 -11 -12 -12 -12 -11 -12 -12 -12 -12 -12 -12 -12 -12 -12 -12 -12 -12 -12 -12 -11 -11 -11 -11 -11 -11 -11 -11 -11 -11 -11 -11 -11 -10 -10 -10 -10 -9 -8 -7 -7 -6 -6 -5 -4 -4 -3 -2 -1 0 1
-13 -13 -13 -12 -12 -12 -11 -12 -12 -11 -11 -10 -9 -9 -9 -9 -9 -9 -9 -9 -9 -9 -8 -8 -7 -7 -7 -7 -7 -7 -7 -8 -9 -10 -11 -11 -11 -11 -11 -12 -12 -13 -13 -13 -13 -13 -12 -12 -12 -12 -13 -12 -12 -13 -12 -12 -12 -12 -12 -12 -12 -12 -12 -12 -12 -12 -12 -12 -11 -11 -9 -9 -8 -8 -7 -6 -6 -6 -5 -4 -3 -2 -1 -1 0
-14 -14 -14 -14 -13 -13 -13 -12 -12 -12 -11 -11 -11 -11 -10 -10 -10 -10 -10 -10 -9 -9 -9 -8 -8 -8 -8 -8 -8 -8 -8 -9 -10 -10 -10 -10 -11 -11 -12 -12 -13 -12 -13 -13 -13 -13 -13 -13 -13 -13 -13 -13 -13 -13 -13 -13 -12 -12 -13 -13 -13 -13 -13 -13 -13 -13 -13 -13 -12 -11 -10 -10 -9 -8 -7 -7 -6 -6 -5 -4 -3 -3 -3 -2 -1
-15 -15 -14 -14 -14 -14 -13 -14 -12 -13 -13 -12 -12 -12 -11 -11 -10 -10 -10 -10 -10 -9 -9 -9 -8 -8 -8 -8 -8 -8 -8 -8 -9 -9 -10 -10 -11 -11 -12 -12 -12 -12 -13 -13 -13 -13 -13 -13 -13 -13 -13 -13 -13 -13 -13 -14 -13 -13 -14 -14 -15 -15 -15 -14 -14 -14 -13 -13 -13 -13 -12 -11 -10 -9 -8 -9 -8 -7 -6 -6 -6 -4 -3 -3 -2
-15 -15 -15 -15 -15 -14 -14 -14 -14 -14 -14 -13 -13 -13 -12 -12 -11 -11 -10 -10 -10 -9 -10 -9 -9 -9 -9 -8 -8 -8 -9 -9 -9 -9 -10 -11 -11 -12 -12 -12 -13 -13 -13 -13 -13 -13 -13 -14 -13 -14 -14 -14 -14 -14 -14 -13 -14 -14 -14 -15 -15 -16 -16 -15 -15 -14 -14 -13 -13 -13 -13 -13 -12 -10 -9 -8 -8 -7 -6 -6 -6 -5 -4 -3 -3
-16 -16 -16 -15 -15 -16 -16 -15 -15 -14 -15 -14 -14 -13 -13 -13 -12 -12 -12 -11 -11 -11 -10 -10 -10 -10 -9 -9 -9 -9 -9 -9 -9 -10 -10 -11 -11 -12 -12 -13 -13 -13 -13 -13 -14 -13 -13 -13 -14 -14 -14 -14 -14 -14 -14 -14 -14 -14 -15 -15 -16 -16 -16 -17 -17 -17 -16 -14 -14 -14 -13 -13 -13 -12 -11 -10 -10 -9 -9 -8 -7 -6 -4 -4 -3
-17 -17 -17 -17 -16 -17 -16 -16 -16 -16 -16 -15 -15 -15 -14 -14 -14 -14 -13 -13 -12 -12 -12 -11 -11 -11 -10 -10 -10 -10 -9 -10 -10 -10 -10 -11 -11 -12 -12 -13 -13 -13 -14 -14 -14 -14 -14 -14 -14 -14 -14 -14 -14 -14 -14 -14 -14 -15 -15 -16 -16 -16 -16 -17 -17 -18 -16 -16 -15 -14 -14 -14 -13 -13 -12 -12 -11 -10 -9 -9 -8 -7 -6 -5 -3
-17 -17 -17 -17 -17 -17 -17 -17 -17 -17 -16 -16 -16 -16 -15 -15 -15 -15 -14 -14 -14 -13 -13 -12 -12 -12 -12 -11 -11 -11 -10 -10 -10 -10 -10 -10 -11 -11 -12 -13 -13 -14 -14 -14 -15 -15 -15 -16 -16 -16 -16 -15 -15 -15 -15 -16 -16 -16 -17 -18 -16 -16 -17 -17 -17 -17 -17 -17 -16 -16 -15 -16 -16 -15 -14 -12 -11 -10 -10 -9 -8 -8 -7 -7 -5
-17 -18 -18 -18 -18 -18 -18 -18 -18 -18 -18 -17 -17 -17 -17 -17 -16 -16 -16 -16 -15 -15 -14 -14 -13 -13 -12 -12 -12 -12 -11 -11 -11 -10 -11 -11 -11 -11 -12 -13 -14 -14 -14 -15 -16 -16 -16 -17 -17 -17 -17 -17 -17 -17 -17 -17 -18 -20 -19 -18 -16 -17 -18 -18 -18 -18 -17 -16 -17 -16 -16 -17 -18 -17 -15 -13 -12 -11 -10 -10 -10 -10 -9 -7 -6